Weather History for Truckee-Tahoe, CA

Change the Weather History Date:

Saturday, August 2, 2014

  Actual Average Record
Temperature  
Mean Temperature 64 °F -  
Max Temperature 87 °F 83 °F 94 °F (1954)
Min Temperature 41 °F 41 °F 24 °F (2013)
Degree Days  
Heating Degree Days 1    
Growing Degree Days 14 (Base 50)    
Moisture  
Dew Point 34 °F    
Average Humidity 43    
Maximum Humidity 76    
Minimum Humidity 14    
Precipitation  
Precipitation 0.00 in - - ()
Sea Level Pressure  
Sea Level Pressure 30.23 in    
Wind  
Wind Speed 2 mph (SW)    
Max Wind Speed 20 mph    
Max Gust Speed 23 mph    
Visibility 10 miles    
Events      
Averages and records for this station are not official NWS values.
T = Trace of Precipitation, MM = Missing Value Source: NWS Daily Summary

Daily Weather History Graph

Daily Weather History Graph

Search for Another Location

Airport:

Trip Planner

Search our weather history database for the weather conditions in past years. The results will help you decide how hot, cold, wet, or windy it might be!

Date:

Astronomy

Aug. 02, 2014 Rise Set
Actual Time 6:01 AM PDT 8:11 PM PDT
Civil Twilight 5:31 AM PDT 8:41 PM PDT
Nautical Twilight 4:55 AM PDT 9:17 PM PDT
Astronomical Twilight 4:15 AM PDT 9:57 PM PDT
Moon 12:25 PM PDT (8/2) 11:35 PM PDT (8/2)
Length of Visible Light 15h 09m
Length of Day
14h 09m
Waxing Crescent, 38% of the Moon is Illuminated
Aug 2
Waxing Crescent
Aug 3
First Quarter
Aug 10
Full
Aug 17
Last Quarter
Aug 25
New

Hourly Weather History & Observations

Time (PDT) Temp. Dew Point Humidity Pressure Visibility Wind Dir Wind Speed Gust Speed Precip Events Conditions
12:15 AM 50.0 °F 33.8 °F 54% 30.25 in 10.0 mi Calm Calm - N/A   Clear
12:35 AM 48.2 °F 32.0 °F 54% 30.25 in 10.0 mi Calm Calm - N/A   Clear
12:55 AM 51.8 °F 33.8 °F 50% 30.25 in 10.0 mi Calm Calm - N/A   Clear
1:35 AM 46.4 °F 33.8 °F 62% 30.25 in 10.0 mi Calm Calm - N/A   Clear
1:55 AM 46.4 °F 33.8 °F 62% 30.25 in 10.0 mi Calm Calm - N/A   Clear
2:15 AM 46.4 °F 33.8 °F 62% 30.25 in 10.0 mi Calm Calm - N/A   Clear
2:35 AM 44.6 °F 32.0 °F 61% 30.25 in 10.0 mi Calm Calm - N/A   Clear
2:55 AM 44.6 °F 33.8 °F 66% 30.25 in 10.0 mi Calm Calm - N/A   Clear
3:15 AM 42.8 °F 32.0 °F 66% 30.25 in 10.0 mi Calm Calm - N/A   Clear
3:35 AM 44.6 °F 33.8 °F 66% 30.25 in 10.0 mi Calm Calm - N/A   Clear
3:55 AM 42.8 °F 33.8 °F 70% 30.25 in 10.0 mi Calm Calm - N/A   Clear
4:15 AM 42.8 °F 32.0 °F 66% 30.25 in 10.0 mi Calm Calm - N/A   Clear
4:35 AM 42.8 °F 32.0 °F 66% 30.25 in 10.0 mi Calm Calm - N/A   Clear
4:55 AM 42.8 °F 33.8 °F 70% 30.26 in 10.0 mi Calm Calm - N/A   Clear
5:15 AM 41.0 °F 32.0 °F 70% 30.26 in 10.0 mi Calm Calm - N/A   Clear
5:35 AM 41.0 °F 32.0 °F 70% 30.26 in 10.0 mi Calm Calm - N/A   Clear
5:55 AM 41.0 °F 32.0 °F 70% 30.27 in 10.0 mi Calm Calm - N/A   Clear
6:15 AM 41.0 °F 32.0 °F 70% 30.27 in 10.0 mi Calm Calm - N/A   Clear
6:35 AM 41.0 °F 33.8 °F 76% 30.27 in 10.0 mi Calm Calm - N/A   Clear
6:55 AM 42.8 °F 33.8 °F 70% 30.27 in 10.0 mi Calm Calm - N/A   Clear
8:50 AM 60.8 °F 37.4 °F 42% 30.27 in 10.0 mi Calm Calm - N/A   Clear
9:55 AM 68.0 °F 39.2 °F 35% 30.25 in 10.0 mi Calm Calm - N/A   Clear
10:50 AM 80.6 °F 35.6 °F 20% 30.23 in 10.0 mi SSE 6.9 mph - N/A   Clear
11:45 AM 80.6 °F 33.8 °F 18% 30.23 in 10.0 mi West 4.6 mph - N/A   Clear
12:55 PM 86.0 °F 32.0 °F 14% 30.22 in 10.0 mi WSW 15.0 mph 19.6 mph N/A   Clear
1:45 PM 84.2 °F 33.8 °F 16% 30.22 in 10.0 mi SSW 6.9 mph 23.0 mph N/A   Clear
2:55 PM 87.8 °F 35.6 °F 16% 30.21 in 10.0 mi SW 12.7 mph 20.7 mph N/A   Partly Cloudy
3:55 PM 86.0 °F 33.8 °F 15% 30.19 in 10.0 mi South 10.4 mph 19.6 mph N/A   Partly Cloudy
4:45 PM 86.0 °F 35.6 °F 17% 30.19 in 10.0 mi South 19.6 mph 21.9 mph N/A   Partly Cloudy
5:45 PM 84.2 °F 33.8 °F 16% 30.17 in 10.0 mi SW 8.1 mph 17.3 mph N/A   Clear
6:15 PM 80.6 °F 33.8 °F 18% 30.17 in 10.0 mi West 10.4 mph - N/A   Clear
6:35 PM 80.6 °F 33.8 °F 18% 30.18 in 10.0 mi West 9.2 mph - N/A   Clear
6:55 PM 78.8 °F 33.8 °F 20% 30.19 in 10.0 mi WSW 9.2 mph - N/A   Clear
7:15 PM 78.8 °F 33.8 °F 20% 30.19 in 10.0 mi WSW 8.1 mph - N/A   Clear
7:35 PM 77.0 °F 33.8 °F 21% 30.19 in 10.0 mi West 8.1 mph - N/A   Clear
7:55 PM 75.2 °F 33.8 °F 22% 30.20 in 10.0 mi West 8.1 mph - N/A   Clear
8:15 PM 73.4 °F 33.8 °F 23% 30.21 in 10.0 mi West 8.1 mph - N/A   Clear
8:35 PM 71.6 °F 33.8 °F 25% 30.22 in 10.0 mi West 6.9 mph - N/A   Clear
8:55 PM 68.0 °F 32.0 °F 26% 30.22 in 10.0 mi WSW 3.5 mph - N/A   Clear
9:15 PM 64.4 °F 32.0 °F 30% 30.23 in 10.0 mi SW 5.8 mph - N/A   Clear
9:35 PM 62.6 °F 32.0 °F 32% 30.23 in 10.0 mi SW 6.9 mph - N/A   Clear
9:55 PM 60.8 °F 33.8 °F 36% 30.23 in 10.0 mi SE 3.5 mph - N/A   Clear
10:15 PM 60.8 °F 33.8 °F 36% 30.23 in 10.0 mi SE 3.5 mph - N/A   Clear
10:55 PM 60.8 °F 33.8 °F 36% 30.25 in 10.0 mi Calm Calm - N/A   Clear
11:35 PM 57.2 °F 33.8 °F 41% 30.25 in 10.0 mi Calm Calm - N/A   Clear
11:55 PM 55.4 °F 33.8 °F 44% 30.25 in 10.0 mi SW 3.5 mph - N/A   Clear